| time (UTC) | temp F | wind direction | speed MPH | gust MPH | rain 1hr in | rain 24hr in | rain mn in | humidity % | barometer mb |
| 20260502163034 | 90 | 211 | 2.0 | 10.0 | 0.00 | 0.00 | 0.00 | 68 | 1008.9 |
| 20260502161521 | 89 | 236 | 3.0 | 10.0 | 0.00 | 0.00 | 0.00 | 69 | 1009.1 |
| 20260502151515 | 87 | 182 | 3.0 | 12.0 | 0.00 | 0.00 | 0.00 | 76 | 1009.3 |
| 20260502130106 | 77 | 191 | 1.0 | 4.0 | 0.00 | 0.00 | 0.00 | 87 | 1009.1 |
| 20260502123112 | 73 | 219 | 0.0 | 3.0 | 0.00 | 0.00 | 0.00 | 93 | 1009.2 |
| 20260502121545 | 71 | 271 | 0.0 | 2.0 | 0.00 | 0.00 | 0.00 | 95 | 1009.2 |
| 20260502114548 | 69 | 208 | 0.0 | 1.0 | 0.00 | 0.00 | 0.00 | 96 | 1009.0 |
| 20260502113044 | 69 | 206 | 0.0 | 3.0 | 0.00 | 0.00 | 0.00 | 96 | 1009.0 |
| 20260502111541 | 68 | 147 | 0.0 | 3.0 | 0.00 | 0.00 | 0.00 | 96 | 1009.0 |
| 20260502110047 | 68 | 216 | 0.0 | 2.0 | 0.00 | 0.00 | 0.00 | 96 | 1009.1 |
| 20260502104540 | 68 | 182 | 0.0 | 3.0 | 0.00 | 0.00 | 0.00 | 96 | 1009.0 |
| 20260502103040 | 68 | 192 | 0.0 | 2.0 | 0.00 | 0.00 | 0.00 | 96 | 1008.8 |
| 20260502101546 | 68 | 202 | 0.0 | 0.0 | 0.00 | 0.00 | 0.00 | 95 | 1008.8 |
| 20260502071519 | 72 | 150 | 0.0 | 2.0 | 0.00 | 0.00 | 0.00 | 90 | 1008.8 |
| 20260502070022 | 72 | 206 | 0.0 | 2.0 | 0.00 | 0.00 | 0.00 | 90 | 1008.7 |
| 20260502064518 | 72 | 200 | 0.0 | 2.0 | 0.00 | 0.00 | 0.00 | 90 | 1008.8 |
| 20260502063016 | 73 | 228 | 0.0 | 1.0 | 0.00 | 0.00 | 0.00 | 90 | 1008.8 |
| 20260502061514 | 73 | 151 | 0.0 | 3.0 | 0.00 | 0.00 | 0.00 | 90 | 1008.9 |
| 20260502060011 | 73 | 148 | 0.0 | 3.0 | 0.00 | 0.00 | 0.00 | 90 | 1009.1 |
| 20260502054520 | 73 | 155 | 0.0 | 2.0 | 0.00 | 0.00 | 0.00 | 90 | 1009.1 |
| 20260502053006 | 74 | 203 | 0.0 | 2.0 | 0.00 | 0.00 | 0.00 | 89 | 1009.3 |
| 20260502051504 | 75 | 157 | 0.0 | 2.0 | 0.00 | 0.00 | 0.00 | 86 | 1009.4 |
| 20260502050011 | 75 | 236 | 0.0 | 3.0 | 0.00 | 0.00 | 0.00 | 86 | 1009.4 |
| 20260502044501 | 76 | 225 | 0.0 | 3.0 | 0.00 | 0.00 | 0.00 | 88 | 1009.6 |
| 20260502043119 | 76 | 216 | 1.0 | 5.0 | 0.00 | 0.00 | 0.00 | 88 | 1009.7 |
| 20260502041559 | 76 | 165 | 1.0 | 7.0 | 0.00 | 0.00 | 0.00 | 88 | 1009.5 |
| 20260502040106 | 76 | 188 | 1.0 | 7.0 | 0.00 | 0.00 | 0.00 | 88 | 1009.6 |
| 20260502034603 | 76 | 244 | 1.0 | 6.0 | 0.00 | 0.00 | 0.00 | 87 | 1009.7 |
| 20260502033105 | 76 | 222 | 3.0 | 8.0 | 0.00 | 0.00 | 0.00 | 87 | 1009.6 |
| 20260502031554 | 77 | 219 | 2.0 | 7.0 | 0.00 | 0.00 | 0.00 | 87 | 1009.6 |
| 20260502030054 | 77 | 211 | 0.0 | 5.0 | 0.00 | 0.00 | 0.00 | 87 | 1009.6 |
| 20260502024609 | 77 | 172 | 1.0 | 3.0 | 0.00 | 0.00 | 0.00 | 87 | 1009.7 |
| 20260502023053 | 76 | 200 | 0.0 | 3.0 | 0.00 | 0.00 | 0.00 | 89 | 1009.6 |
| 20260502021555 | 76 | 224 | 0.0 | 1.0 | 0.00 | 0.00 | 0.00 | 90 | 1009.3 |
| 20260502020054 | 76 | 148 | 0.0 | 0.0 | 0.00 | 0.00 | 0.00 | 90 | 1009.0 |
| 20260502014550 | 76 | 149 | 0.0 | 1.0 | 0.00 | 0.00 | 0.00 | 90 | 1009.0 |
| 20260502013051 | 76 | 150 | 0.0 | 0.0 | 0.00 | 0.00 | 0.00 | 89 | 1008.8 |
| 20260502011549 | 77 | 150 | 0.0 | 2.0 | 0.00 | 0.00 | 0.00 | 88 | 1008.7 |
| 20260502010053 | 77 | 134 | 0.0 | 1.0 | 0.00 | 0.00 | 0.00 | 87 | 1008.5 |
| 20260502004600 | 78 | 145 | 0.0 | 1.0 | 0.00 | 0.00 | 0.00 | 86 | 1008.3 |
| 20260502003048 | 79 | 145 | 0.0 | 2.0 | 0.00 | 0.00 | 0.00 | 84 | 1008.0 |
| 20260502001547 | 80 | 188 | 0.0 | 1.0 | 0.00 | 0.00 | 0.00 | 84 | 1007.8 |
| 20260502000047 | 80 | 136 | 0.0 | 1.0 | 0.00 | 0.00 | 0.00 | 83 | 1007.6 |
| 20260501234547 | 81 | 142 | 0.0 | 2.0 | 0.00 | 0.00 | 0.00 | 82 | 1007.5 |
| 20260501233049 | 82 | 155 | 0.0 | 2.0 | 0.00 | 0.00 | 0.00 | 81 | 1007.3 |
| 20260501231545 | 83 | 217 | 0.0 | 2.0 | 0.00 | 0.00 | 0.00 | 80 | 1007.2 |
| 20260501230046 | 83 | 129 | 1.0 | 6.0 | 0.00 | 0.00 | 0.00 | 78 | 1007.1 |
| 20260501224550 | 83 | 160 | 0.0 | 3.0 | 0.00 | 0.00 | 0.00 | 78 | 1007.0 |
| 20260501223044 | 83 | 156 | 1.0 | 4.0 | 0.00 | 0.00 | 0.00 | 77 | 1007.1 |
| 20260501221544 | 84 | 137 | 0.0 | 5.0 | 0.00 | 0.00 | 0.00 | 75 | 1007.1 |
| 20260501220050 | 85 | 71 | 0.0 | 4.0 | 0.00 | 0.00 | 0.00 | 71 | 1007.0 |
| 20260501214543 | 87 | 187 | 1.0 | 6.0 | 0.00 | 0.00 | 0.00 | 68 | 1007.0 |
| 20260501213048 | 87 | 224 | 2.0 | 7.0 | 0.00 | 0.00 | 0.00 | 68 | 1007.1 |
| 20260501211540 | 87 | 182 | 1.0 | 7.0 | 0.00 | 0.00 | 0.00 | 69 | 1007.2 |
| 20260501210044 | 88 | 217 | 1.0 | 12.0 | 0.00 | 0.00 | 0.00 | 70 | 1007.2 |
| 20260501204538 | 88 | 108 | 1.0 | 7.0 | 0.00 | 0.00 | 0.00 | 72 | 1007.4 |
| 20260501203037 | 88 | 102 | 1.0 | 8.0 | 0.00 | 0.00 | 0.00 | 72 | 1007.7 |
| 20260501201534 | 88 | 119 | 1.0 | 4.0 | 0.00 | 0.00 | 0.00 | 71 | 1008.0 |
| 20260501200031 | 88 | 195 | 0.0 | 3.0 | 0.00 | 0.00 | 0.00 | 69 | 1008.2 |
| 20260501194536 | 90 | 156 | 0.0 | 2.0 | 0.00 | 0.00 | 0.00 | 68 | 1008.3 |
| 20260501193031 | 89 | 149 | 0.0 | 2.0 | 0.00 | 0.00 | 0.00 | 68 | 1008.6 |
| 20260501191530 | 88 | 169 | 0.0 | 4.0 | 0.00 | 0.00 | 0.00 | 69 | 1008.7 |
| 20260501190024 | 89 | 79 | 0.0 | 3.0 | 0.00 | 0.00 | 0.00 | 61 | 1008.8 |
| 20260501184524 | 89 | 218 | 0.0 | 4.0 | 0.00 | 0.00 | 0.00 | 61 | 1009.0 |
| 20260501183026 | 89 | 259 | 0.0 | 2.0 | 0.00 | 0.00 | 0.00 | 61 | 1009.1 |
| 20260501181523 | 90 | 288 | 2.0 | 6.0 | 0.00 | 0.00 | 0.00 | 60 | 1009.4 |
| 20260501180033 | 89 | 288 | 0.0 | 4.0 | 0.00 | 0.00 | 0.00 | 60 | 1009.4 |
| 20260501174525 | 89 | 169 | 1.0 | 5.0 | 0.00 | 0.00 | 0.00 | 60 | 1009.6 |
| 20260501173021 | 88 | 293 | 0.0 | 5.0 | 0.00 | 0.00 | 0.00 | 63 | 1009.7 |
| 20260501171519 | 88 | 295 | 0.0 | 4.0 | 0.00 | 0.00 | 0.00 | 64 | 1009.8 |